Tracking 19576 objects as of 16-Feb-2019
HD Live streaming from Space Station
objects crossing your sky now

COSMOS 1058

Track COSMOS 1058 now!
10-day predictions
COSMOS 1058 is classified as:


NORAD ID: 11135
Int'l Code: 1978-109H
Perigee: 1,486.8 km
Apogee: 1,545.3 km
Inclination: 74.0 °
Period: 116.2 minutes
Semi major axis: 7887 km
RCS: 0.7109 m2 (medium)
Launch date: December 5, 1978
Source: Commonwealth of Independent States (former USSR) (CIS)
Launch site: PLESETSK MISSILE AND SPACE COMPLEX (PKMTR)
aabbcc
Your satellite tracking list
Your tracking list is empty




NASA's NSSDC Master Catalog

Two Line Element Set (TLE):
1 11135U 78109H   19047.85136612 -.00000003  00000-0  97897-4 0  9997
2 11135  74.0167 292.4790 0037096 225.2354 207.2670 12.39464947819178
Source of the keplerian elements: AFSPC